[[{"header":{"parameterUnit":"m.s-1","parameterCategory":1,"la1":30.2991,"la2":30.254,"lo1":-89.0895,"lo2":-89.0444,"dy":0.0017,"dx":0.0017,"nx":28,"ny":28,"refTime":"2024-05-10T21:00:00:Z","depth":0,"parameterNumber":2,"parameterNumberName":"U-component_of_WINDS"},"data":[0,0,0,0,0,0,0,0,0,0,0,0,0,0,0,0,0,0,0,0,0,0,0,0,0,0,0,0,0,0,0,0,0,0,0,0,0,0,0,0,0,0,0,0,0,0,0,0,0,0,0,0,0,0,0,0,0,0,0.0081,0.0082,0,0.0137,0.0137,0.0138,0.0186,0.0187,0.0187,0.0188,0.0243,0.0244,0.0245,0,0,0,0,0,0,0,0,0,0,0,0,0,0.0015,0.0016,0.0081,0.0082,0.0083,0.0137,0.0137,0.0138,0.0186,0.0187,0.0188,0.0188,0.0243,0.0244,0.0245,0,0,0,0,0,0,0,0,0,0,0,0,0,0.0055,0.0017,0.0081,0.0113,0.0117,0.0136,0.0137,0.0138,0.0186,0.0187,0.0188,0.0189,0.0243,0.0244,0.0246,0.0238,0,0,0.025,0.0251,0,0,0,0,0,0,0,0,0.0052,0.0057,0.0108,0.0111,0.0115,0.0156,0.0135,0.0172,0.0186,0.016,0.0188,0.0189,0.0213,0.0217,0.0226,0.024,0.0243,0.025,0.0251,0.0252,0.0252,0,0,0,0,0,0,0,0.005,0.0055,0.0103,0.0108,0.0113,0.0124,0.0131,0.0142,0.0181,0.0162,0.0166,0.0172,0.0215,0.0224,0.0227,0.0243,0.025,0.0251,0.0252,0.0253,0.0252,0.0251,0,0,0,0,0,0,0.0042,0.0052,0.0101,0.0105,0.0085,0.0125,0.0132,0.0142,0.0181,0.0188,0.0171,0.0174,0.0221,0.0226,0.023,0.0221,0.0252,0.0253,0.0254,0.0253,0.0252,0.0251,0,0,0,0,0,0,0.0041,0.0046,0.0099,0.008,0.0087,0.0125,0.0135,0.0142,0.0151,0.0188,0.0195,0.0173,0.0222,0.0228,0.0235,0.0224,0.0254,0.0255,0.0254,0.0253,0.0251,0.0205,0,0,0,0,0,0,0.0038,0.0045,0.0043,0.0079,0.0088,0.0104,0.0135,0.0143,0.0154,0.0158,0.0191,0.0198,0.0223,0.0232,0.0236,0.0226,0.0256,0.0255,0.0253,0.0252,0.0207,0.0202,0.0197,0,0,0,0,0,0.0036,0.0028,0.0043,0.0048,0.0086,0.0103,0.0108,0.0138,0.0153,0.015,0.0174,0.0197,0.0225,0.0233,0.0238,0.0228,0.0256,0.0254,0.0252,0.021,0.0203,0.0198,0,0,0,0,0,0,-0.0011,0.0033,0.005,0.0054,0.0074,0.0111,0.0109,0.0131,0.0147,0.015,0.0187,0.0194,0.0196,0.0213,0.0221,0.0221,0.0243,0.0242,0.021,0.0204,0.0199,0.0193,0.0257,0,0,0,0,0,-0.0021,-0.001,0.0028,0.0027,0.0037,0.0071,0.008,0.0101,0.0124,0.0132,0.0157,0.0177,0.019,0.0198,0.0213,0.0211,0.0218,0.0206,0.0201,0.0197,0.0195,0.0193,0.0187,0.0244,0.0244,0.0244,0,0,-0.0041,-0.0016,-0.0011,0.0019,0.0037,0.0046,0.0078,0.0087,0.0094,0.0134,0.0141,0.016,0.0185,0.0187,0.0189,0.0201,0.0181,0.0195,0.0191,0.0191,0.019,0.0184,0.018,0.0243,0.0243,0.0243,0,0,-0.0074,-0.0053,-0.0052,-0.0034,-0.0006,0.0016,0.0017,0.005,0.0064,0.0073,0.0102,0.0111,0.0134,0.015,0.0161,0.0133,0.0154,0.0137,0.011,0.0107,0.0103,0.0099,0.0086,0.0082,0.0135,0.0135,0.0135,0,-0.0103,-0.0088,-0.0054,-0.0048,-0.0036,0.0001,0.0001,0.0017,0.0047,0.0054,0.0067,0.0095,0.0115,0.012,0.0113,0.0122,0.0122,0.0132,0.0101,0.0097,0.0094,0.0082,0.0078,0.0133,0.0133,0.0133,0.0133,0,-0.0126,-0.0116,-0.0118,-0.009,-0.0078,-0.0075,-0.0042,-0.0035,-0.0014,0.0006,0.0014,0.0039,0.0058,0.0062,0.0082,0.0069,0.0075,0.0094,0.0117,0.0085,0.0075,0.0071,0.0129,0.013,0.0131,0.0131,0,0,-0.0188,-0.0141,-0.0143,-0.0131,-0.0097,-0.0089,-0.0085,-0.0066,-0.0061,-0.0041,-0.0038,-0.002,-0.0002,0.001,0.0033,0.0031,0.0004,0.005,0.0051,0.0038,-0.0012,-0.0028,-0.0034,0.0019,0.0019,0.0018,-0.0015,0,-0.0218,-0.0207,-0.0177,-0.0176,-0.0168,-0.0132,-0.0128,-0.0109,-0.0089,-0.0079,-0.0057,-0.0046,-0.0022,-0.0015,-0.0015,0.0007,-0.0006,0.001,0.002,0.002,0.001,-0.0039,-0.0056,-0.0088,-0.0018,-0.0019,-0.0019,0,-0.0251,-0.0234,-0.0232,-0.0201,-0.0196,-0.0193,-0.0174,-0.0165,-0.0142,-0.0127,-0.0114,-0.0089,-0.0084,-0.0061,-0.0055,-0.0044,-0.0038,-0.0027,-0.0027,-0.0027,-0.0003,-0.0043,-0.0097,-0.0104,-0.0025,-0.0024,-0.0024,0,-0.03,-0.0276,-0.0272,-0.0262,-0.0225,-0.0224,-0.0209,-0.0185,-0.0176,-0.0159,-0.0154,-0.0136,-0.0128,-0.0116,-0.0088,-0.0074,-0.0085,-0.006,-0.0075,-0.0076,-0.0081,-0.0082,-0.0139,-0.0073,-0.0073,-0.0073,-0.0073,0,-0.0337,-0.0339,-0.0294,-0.0292,-0.0293,-0.0258,-0.026,-0.0241,-0.0221,-0.0216,-0.0183,-0.0179,-0.0141,-0.0133,-0.0111,-0.011,-0.0106,-0.0096,-0.009,-0.01,-0.0102,-0.0098,-0.0096,-0.0074,-0.0074,-0.0073,-0.0073,0,-0.0393,-0.0363,-0.0357,-0.0322,-0.0314,-0.0316,-0.0287,-0.0285,-0.0262,-0.0257,-0.0253,-0.0219,-0.0209,-0.0179,-0.016,-0.0145,-0.0152,-0.014,-0.016,-0.0157,-0.0176,-0.0176,-0.0234,-0.0241,-0.0168,-0.0169,-0.0169,0,-0.0421,-0.0421,-0.0386,-0.038,-0.0366,-0.0357,-0.0348,-0.0314,-0.0306,-0.028,-0.0282,-0.0268,-0.0256,-0.024,-0.0215,-0.0201,-0.019,-0.0211,-0.0188,-0.0199,-0.0194,-0.0196,-0.0197,-0.0218,-0.0218,-0.0219,-0.022,0,-0.0474,-0.0459,-0.0447,-0.043,-0.042,-0.0405,-0.0388,-0.0385,-0.0347,-0.034,-0.0329,-0.0319,-0.03,-0.0289,-0.0271,-0.0256,-0.0233,-0.0227,-0.0231,-0.0242,-0.0255,-0.0252,-0.0177,-0.0227,-0.0226,-0.0225,-0.0225,-0.0225,-0.0518,-0.0517,-0.0493,-0.0481,-0.0465,-0.0451,-0.0447,-0.0425,-0.0415,-0.0397,-0.0377,-0.0369,-0.0347,-0.0321,-0.0307,-0.0301,-0.0289,-0.0293,-0.0294,-0.0297,-0.0303,-0.0254,-0.0297,-0.0297,-0.0297,-0.0297,-0.0296,0,-0.0572,-0.0555,-0.0544,-0.0522,-0.0513,-0.049,-0.0471,-0.0465,-0.0458,-0.0439,-0.0428,-0.0416,-0.0404,-0.0378,-0.0364,-0.0364,-0.0354,-0.0362,-0.0363,-0.0361,-0.0313,-0.0313,-0.0371,-0.0371,-0.0371,-0.0371,-0.0371,-0.0371,-0.0599,-0.0598,-0.058,-0.0571,-0.0554,-0.0545,-0.0536,-0.0523,-0.0509,-0.0497,-0.0487,-0.0469,-0.0448,-0.0433,-0.0422,-0.0414,-0.0412,-0.0425,-0.0415,-0.0371,-0.0364,-0.0357,-0.0357,-0.0424,-0.0424,-0.0463,-0.0464,-0.0464]},{"header":{"parameterUnit":"m.s-1","parameterCategory":1,"la1":30.2991,"la2":30.254,"lo1":-89.0895,"lo2":-89.0444,"dy":0.0017,"dx":0.0017,"nx":28,"ny":28,"refTime":"2024-05-10T21:00:00:Z","depth":0,"parameterNumber":3,"parameterNumberName":"V-component_of_WINDS"},"data":[0,0,0,0,0,0,0,0,0,0,0,0,0,0,0,0,0,0,0,0,0,0,0,0,0,0,0,0,0,0,0,0,0,0,0,0,0,0,0,0,0,0,0,0,0,0,0,0,0,0,0,0,0,0,0,0,0,0,-1.3308,-1.3308,0,-1.3243,-1.3243,-1.3242,-1.3346,-1.335,-1.3354,-1.3357,-1.3279,-1.3273,-1.3268,0,0,0,0,0,0,0,0,0,0,0,0,0,-1.3513,-1.3509,-1.3308,-1.3307,-1.3307,-1.3244,-1.3243,-1.3242,-1.3346,-1.335,-1.3355,-1.3359,-1.328,-1.3274,-1.3267,0,0,0,0,0,0,0,0,0,0,0,0,0,-1.3434,-1.3508,-1.3308,-1.3351,-1.3355,-1.3244,-1.3243,-1.3241,-1.3345,-1.335,-1.3356,-1.3361,-1.3283,-1.3275,-1.3267,-1.3107,0,0,-1.3242,-1.3238,0,0,0,0,0,0,0,0,-1.3438,-1.3426,-1.3346,-1.3348,-1.3352,-1.3309,-1.3286,-1.3196,-1.3344,-1.3348,-1.3357,-1.3364,-1.3284,-1.3276,-1.3251,-1.3103,-1.31,-1.3241,-1.3236,-1.3232,-1.323,0,0,0,0,0,0,0,-1.3443,-1.3429,-1.3282,-1.3344,-1.3348,-1.3371,-1.3366,-1.327,-1.3286,-1.3348,-1.3356,-1.3347,-1.3286,-1.3259,-1.325,-1.3099,-1.3241,-1.3234,-1.3229,-1.3225,-1.2819,-1.2813,0,0,0,0,0,0,-1.3445,-1.3433,-1.3284,-1.328,-1.341,-1.3363,-1.3357,-1.3317,-1.3287,-1.3288,-1.3343,-1.3352,-1.327,-1.3259,-1.3248,-1.306,-1.3232,-1.3225,-1.322,-1.2825,-1.2818,-1.2811,0,0,0,0,0,0,-1.3449,-1.3431,-1.3287,-1.3359,-1.3342,-1.3354,-1.3308,-1.3313,-1.3286,-1.3283,-1.3285,-1.3312,-1.3274,-1.3259,-1.3143,-1.3058,-1.3221,-1.3213,-1.2832,-1.2823,-1.2814,-1.2682,0,0,0,0,0,0,-1.3455,-1.3432,-1.3373,-1.3357,-1.3338,-1.3185,-1.3303,-1.3307,-1.3273,-1.3285,-1.3255,-1.3255,-1.3277,-1.3154,-1.3134,-1.305,-1.3207,-1.2839,-1.2828,-1.2817,-1.2694,-1.2669,-1.2649,0,0,0,0,0,-1.3462,-1.3335,-1.3369,-1.3351,-1.3266,-1.318,-1.3169,-1.32,-1.3265,-1.3205,-1.3204,-1.3256,-1.3072,-1.3141,-1.312,-1.3032,-1.2844,-1.2831,-1.2818,-1.2704,-1.2674,-1.2649,0,0,0,0,0,0,-1.3335,-1.3333,-1.3371,-1.3237,-1.3208,-1.3198,-1.3122,-1.3167,-1.3116,-1.3129,-1.3166,-1.3158,-1.3034,-1.3021,-1.3099,-1.2877,-1.2969,-1.295,-1.2889,-1.2861,-1.2839,-1.2843,-1.32,0,0,0,0,0,-1.3293,-1.3227,-1.3228,-1.3108,-1.3093,-1.311,-1.3074,-1.3101,-1.3071,-1.3058,-1.3048,-1.3015,-1.295,-1.2905,-1.2844,-1.2694,-1.2688,-1.2623,-1.26,-1.2582,-1.2565,-1.2485,-1.2456,-1.2768,-1.2768,-1.2768,0,0,-1.3202,-1.3193,-1.3148,-1.3083,-1.3064,-1.2992,-1.3099,-1.3017,-1.2964,-1.3044,-1.2935,-1.2927,-1.2892,-1.2758,-1.2698,-1.2743,-1.2478,-1.2565,-1.2551,-1.2543,-1.2468,-1.2439,-1.2413,-1.2759,-1.276,-1.2762,0,0,-1.3,-1.2987,-1.2887,-1.2868,-1.284,-1.2853,-1.2829,-1.2813,-1.2812,-1.2704,-1.2764,-1.27,-1.2586,-1.2559,-1.253,-1.2324,-1.2369,-1.2303,-1.2184,-1.2106,-1.2081,-1.206,-1.1985,-1.1958,-1.2286,-1.2286,-1.2286,0,-1.2889,-1.2787,-1.2829,-1.2745,-1.2714,-1.2791,-1.2688,-1.2666,-1.2618,-1.2593,-1.2647,-1.2509,-1.249,-1.2351,-1.2301,-1.2276,-1.2248,-1.2304,-1.2082,-1.2061,-1.2041,-1.1971,-1.1942,-1.2278,-1.2279,-1.228,-1.228,0,-1.2652,-1.258,-1.2502,-1.246,-1.2421,-1.2327,-1.2354,-1.2308,-1.234,-1.2347,-1.2236,-1.2218,-1.2156,-1.2126,-1.2153,-1.1991,-1.202,-1.2077,-1.2169,-1.2003,-1.1937,-1.191,-1.2266,-1.2269,-1.2272,-1.2274,0,0,-1.2363,-1.235,-1.232,-1.2303,-1.228,-1.2224,-1.2135,-1.2079,-1.2039,-1.2004,-1.1929,-1.1834,-1.1888,-1.1856,-1.1882,-1.1813,-1.1651,-1.1879,-1.1879,-1.1836,-1.147,-1.1426,-1.1394,-1.1683,-1.1678,-1.1674,-1.1473,0,-1.2162,-1.2012,-1.205,-1.19,-1.1834,-1.1907,-1.183,-1.1806,-1.1811,-1.1753,-1.1758,-1.169,-1.1767,-1.1748,-1.1684,-1.1684,-1.1577,-1.1699,-1.161,-1.1606,-1.1615,-1.136,-1.1312,-1.1124,-1.1448,-1.1443,-1.144,0,-1.1906,-1.1867,-1.1712,-1.1703,-1.1677,-1.1606,-1.156,-1.1505,-1.148,-1.1488,-1.1455,-1.1495,-1.1405,-1.1502,-1.1377,-1.1459,-1.1426,-1.1421,-1.1414,-1.1404,-1.1511,-1.1342,-1.1064,-1.1035,-1.14,-1.1403,-1.1406,0,-1.171,-1.1619,-1.1515,-1.1498,-1.1485,-1.1434,-1.1425,-1.1406,-1.1371,-1.1329,-1.1307,-1.1254,-1.1224,-1.1181,-1.1205,-1.1273,-1.1076,-1.1175,-1.1079,-1.1078,-1.1031,-1.1033,-1.0742,-1.1012,-1.1013,-1.1013,-1.1014,0,-1.148,-1.1381,-1.1427,-1.1362,-1.1255,-1.1299,-1.119,-1.119,-1.1173,-1.1108,-1.1168,-1.1105,-1.1143,-1.1082,-1.1101,-1.0995,-1.0981,-1.0983,-1.0989,-1.0977,-1.0976,-1.0953,-1.0966,-1.1006,-1.1007,-1.1009,-1.101,0,-1.1241,-1.1268,-1.1159,-1.1159,-1.1156,-1.1076,-1.1074,-1.1013,-1.1026,-1.0943,-1.0926,-1.0943,-1.0876,-1.0898,-1.0823,-1.0836,-1.0701,-1.0725,-1.0711,-1.0716,-1.0619,-1.0627,-1.03,-1.0259,-1.0558,-1.0555,-1.0553,0,-1.1091,-1.1018,-1.1011,-1.0975,-1.0964,-1.0903,-1.0869,-1.091,-1.0872,-1.0841,-1.0783,-1.0723,-1.0676,-1.0564,-1.0568,-1.0512,-1.0533,-1.0423,-1.0525,-1.0516,-1.053,-1.0534,-1.0526,-1.0401,-1.0398,-1.0395,-1.0393,0,-1.0822,-1.084,-1.0792,-1.0748,-1.0708,-1.0674,-1.0646,-1.0611,-1.0651,-1.0605,-1.054,-1.0504,-1.0432,-1.037,-1.0321,-1.0309,-1.0356,-1.0362,-1.0336,-1.0322,-1.0317,-1.0317,-1.0653,-1.0368,-1.037,-1.0372,-1.0373,-1.0374,-1.0622,-1.0561,-1.0548,-1.0493,-1.0477,-1.045,-1.0394,-1.0402,-1.0349,-1.0297,-1.0324,-1.0248,-1.0226,-1.0166,-1.0148,-1.0088,-1.013,-1.0093,-1.0083,-1.0073,-1.0061,-1.0329,-1.0079,-1.0079,-1.008,-1.0081,-1.0081,0,-1.0355,-1.0352,-1.0301,-1.0262,-1.0218,-1.0273,-1.0245,-1.0204,-1.0138,-1.0116,-1.0071,-0.9996,-0.9938,-0.9939,-0.9885,-0.9836,-0.9856,-0.982,-0.9823,-0.9819,-1.0026,-1.0053,-0.9805,-0.9805,-0.9805,-0.9805,-0.9805,-0.9805,-1.0211,-1.0112,-1.0129,-1.0023,-1.002,-0.9949,-0.9929,-0.9904,-0.9888,-0.9803,-0.9757,-0.976,-0.9748,-0.9694,-0.9642,-0.9644,-0.962,-0.9575,-0.9585,-0.9777,-0.9804,-0.983,-0.9856,-0.957,-0.957,-0.9383,-0.9381,-0.938]}]]